Tracking 19706 objects as of 17-Jun-2019
HD Live streaming from Space Station
objects crossing your sky now

COSMOS 1709

Track COSMOS 1709 now!
10-day predictions
COSMOS 1709 is classified as:


NORAD ID: 16368
Int'l Code: 1985-116A
Perigee: 964.1 km
Apogee: 1,017.3 km
Inclination: 82.9 °
Period: 104.8 minutes
Semi major axis: 7361 km
RCS: 2.2148 m2 (large)
Launch date: December 19, 1985
Source: Commonwealth of Independent States (former USSR) (CIS)
Launch site: PLESETSK MISSILE AND SPACE COMPLEX (PKMTR)
aabbcc
Your satellite tracking list
Your tracking list is empty




NASA's NSSDC Master Catalog

Two Line Element Set (TLE):
1 16368U 85116A   19167.68892330 +.00000036 +00000-0 +21260-4 0  9992
2 16368 082.9452 205.5110 0036159 055.4197 083.8323 13.74468679679492
Source of the keplerian elements: AFSPC